Location: Baix
(44.7118°N, 4.7648°E)
Time: 02:10:41
(UTC+00:00)

SL-16 R/B - Pass Details

Date: 07 August 2020
Orbit: 985 x 1007 km, 99.5° (Epoch: 19 September)

Event Time Altitude Azimuth Distance (km) Brightness Sun altitude
Exits shadow 02:13:42 34° 237° (WSW) 1,596 3.1 -20.4°
Maximum altitude 02:14:59 37° 263° (W) 1,509 3.1 -20.3°
Drops below altitude 10° 02:20:46 10° 330° (NNW) 2,790 5.1 -19.6°
Sets 02:23:28 0° 338° (NNW) 3,742 5.9 -19.3°
